Precipitable_Water
1.13 1.10 1.04 0.99 0.91 0.87 0.84 0.79 0.76 0.75 0.77 0.79 0.77 0.78 0.80 0.82 0.86 0.87 0.88 0.89 0.88 0.88 0.88 0.90 0.92 0.94 0.97 0.99 1.02 1.03 1.05 1.06 1.09 1.13 1.15 1.18 1.21 1.25 1.29 1.32 1.32 1.29
1.10 1.07 1.02 0.95 0.88 0.86 0.83 0.80 0.78 0.77 0.76 0.79 0.79 0.80 0.83 0.85 0.87 0.88 0.87 0.87 0.88 0.88 0.89 0.91 0.92 0.94 0.95 0.97 0.99 1.00 1.02 1.05 1.06 1.14 1.14 1.16 1.19 1.23 1.27 1.30 1.32 1.32
1.08 1.01 0.95 0.87 0.84 0.81 0.80 0.80 0.79 0.79 0.79 0.80 0.81 0.81 0.82 0.86 0.86 0.87 0.87 0.87 0.87 0.88 0.89 0.91 0.92 0.93 0.95 0.96 0.99 1.00 0.99 1.01 1.03 1.08 1.11 1.13 1.18 1.19 1.23 1.27 1.32 1.32
1.02 0.95 0.90 0.86 0.83 0.80 0.81 0.79 0.79 0.80 0.80 0.79 0.78 0.81 0.84 0.86 0.86 0.85 0.87 0.88 0.87 0.87 0.89 0.90 0.91 0.94 0.96 0.98 1.00 1.00 1.01 1.02 1.05 1.07 1.06 1.10 1.13 1.16 1.21 1.25 1.28 1.32
0.94 0.90 0.87 0.84 0.83 0.84 0.82 0.79 0.79 0.79 0.78 0.79 0.81 0.84 0.84 0.85 0.85 0.85 0.86 0.86 0.86 0.86 0.88 0.89 0.92 0.94 0.96 0.98 0.99 0.98 1.00 1.01 1.05 1.06 1.03 1.03 1.07 1.10 1.14 1.16 1.18 1.23
0.92 0.88 0.85 0.83 0.84 0.83 0.81 0.79 0.79 0.79 0.79 0.79 0.81 0.85 0.85 0.86 0.85 0.84 0.84 0.84 0.85 0.86 0.87 0.89 0.90 0.92 0.94 0.94 0.97 0.97 0.98 0.97 1.00 1.01 0.99 0.99 1.02 1.07 1.09 1.11 1.12 1.15
0.85 0.83 0.82 0.84 0.83 0.83 0.81 0.80 0.79 0.80 0.80 0.81 0.84 0.84 0.85 0.85 0.84 0.84 0.84 0.85 0.85 0.86 0.86 0.87 0.88 0.89 0.92 0.93 0.93 0.93 0.94 0.95 0.96 0.96 0.94 0.96 0.97 0.99 1.04 1.06 1.07 1.09
0.83 0.83 0.82 0.83 0.82 0.81 0.80 0.80 0.80 0.81 0.82 0.84 0.84 0.84 0.85 0.85 0.85 0.85 0.85 0.85 0.85 0.85 0.86 0.87 0.88 0.89 0.91 0.91 0.90 0.89 0.90 0.92 0.91 0.91 0.90 0.91 0.93 0.93 0.96 0.99 1.02 1.03
0.82 0.80 0.82 0.82 0.80 0.80 0.79 0.79 0.81 0.82 0.85 0.83 0.83 0.84 0.86 0.85 0.84 0.84 0.84 0.84 0.84 0.84 0.83 0.83 0.84 0.86 0.88 0.87 0.86 0.85 0.85 0.86 0.88 0.88 0.87 0.87 0.87 0.88 0.90 0.94 0.95 0.97
0.80 0.81 0.81 0.81 0.79 0.79 0.80 0.81 0.82 0.84 0.85 0.84 0.84 0.84 0.83 0.84 0.85 0.84 0.82 0.82 0.81 0.81 0.80 0.80 0.81 0.83 0.84 0.84 0.84 0.83 0.82 0.82 0.84 0.85 0.85 0.85 0.85 0.85 0.87 0.88 0.88 0.90
0.79 0.80 0.80 0.79 0.78 0.80 0.80 0.82 0.83 0.84 0.85 0.83 0.83 0.82 0.82 0.82 0.83 0.84 0.81 0.80 0.79 0.78 0.79 0.79 0.80 0.81 0.81 0.82 0.83 0.83 0.82 0.81 0.81 0.82 0.83 0.84 0.85 0.86 0.87 0.86 0.86 0.86
0.79 0.79 0.78 0.79 0.80 0.81 0.82 0.83 0.84 0.84 0.83 0.83 0.82 0.80 0.81 0.81 0.80 0.81 0.80 0.79 0.79 0.79 0.80 0.80 0.80 0.80 0.80 0.80 0.80 0.81 0.81 0.81 0.81 0.82 0.83 0.84 0.85 0.86 0.87 0.87 0.85 0.85
0.78 0.78 0.79 0.81 0.82 0.82 0.84 0.84 0.83 0.83 0.83 0.81 0.82 0.81 0.80 0.79 0.80 0.79 0.80 0.80 0.79 0.79 0.79 0.79 0.79 0.79 0.79 0.79 0.80 0.80 0.79 0.79 0.79 0.80 0.80 0.82 0.83 0.84 0.87 0.87 0.87 0.87
0.79 0.81 0.82 0.82 0.83 0.85 0.84 0.83 0.83 0.83 0.82 0.82 0.82 0.80 0.79 0.78 0.78 0.78 0.79 0.79 0.78 0.78 0.78 0.79 0.79 0.78 0.79 0.80 0.80 0.79 0.78 0.77 0.77 0.76 0.77 0.78 0.79 0.81 0.84 0.85 0.86 0.87
0.81 0.82 0.83 0.83 0.84 0.83 0.83 0.82 0.82 0.82 0.82 0.81 0.80 0.79 0.78 0.78 0.78 0.78 0.76 0.76 0.77 0.77 0.76 0.77 0.76 0.76 0.76 0.77 0.77 0.77 0.77 0.75 0.75 0.75 0.75 0.75 0.75 0.77 0.79 0.81 0.83 0.85
0.81 0.82 0.82 0.83 0.83 0.82 0.81 0.81 0.81 0.81 0.80 0.79 0.78 0.78 0.77 0.77 0.77 0.77 0.76 0.75 0.74 0.75 0.75 0.74 0.74 0.74 0.74 0.75 0.75 0.75 0.75 0.75 0.74 0.74 0.73 0.73 0.72 0.72 0.73 0.75 0.77 0.79
0.82 0.81 0.82 0.81 0.82 0.82 0.81 0.80 0.79 0.79 0.78 0.77 0.76 0.76 0.76 0.75 0.76 0.75 0.74 0.74 0.73 0.72 0.71 0.71 0.71 0.71 0.71 0.71 0.71 0.72 0.72 0.71 0.70 0.70 0.70 0.70 0.70 0.69 0.69 0.70 0.72 0.74
0.81 0.81 0.81 0.81 0.81 0.80 0.80 0.79 0.79 0.77 0.76 0.75 0.75 0.74 0.74 0.74 0.73 0.72 0.71 0.71 0.70 0.69 0.68 0.67 0.67 0.68 0.68 0.68 0.67 0.67 0.67 0.67 0.66 0.64 0.64 0.64 0.64 0.65 0.66 0.67 0.68 0.69
0.81 0.81 0.80 0.79 0.80 0.79 0.79 0.79 0.77 0.75 0.74 0.73 0.72 0.73 0.72 0.71 0.69 0.69 0.67 0.67 0.66 0.64 0.63 0.64 0.63 0.63 0.63 0.62 0.61 0.61 0.60 0.59 0.58 0.57 0.56 0.56 0.57 0.58 0.60 0.61 0.62 0.63
0.81 0.80 0.79 0.79 0.79 0.79 0.78 0.77 0.75 0.73 0.73 0.72 0.71 0.71 0.69 0.67 0.66 0.64 0.64 0.63 0.62 0.60 0.59 0.58 0.57 0.56 0.54 0.53 0.51 0.50 0.49 0.48 0.47 0.46 0.46 0.46 0.47 0.48 0.48 0.49 0.51 0.52
0.81 0.80 0.79 0.79 0.79 0.78 0.77 0.75 0.73 0.71 0.70 0.69 0.68 0.66 0.65 0.63 0.61 0.59 0.58 0.56 0.55 0.53 0.50 0.47 0.46 0.45 0.43 0.41 0.40 0.38 0.38 0.37 0.36 0.36 0.35 0.35 0.35 0.36 0.36 0.35 0.36 0.37
0.80 0.80 0.79 0.78 0.77 0.75 0.73 0.71 0.69 0.68 0.66 0.66 0.64 0.62 0.60 0.57 0.55 0.52 0.48 0.45 0.43 0.41 0.38 0.36 0.36 0.35 0.34 0.33 0.32 0.32 0.32 0.31 0.31 0.30 0.29 0.29 0.30 0.31 0.31 0.31 0.31 0.30
0.81 0.79 0.78 0.76 0.74 0.72 0.70 0.68 0.66 0.64 0.62 0.60 0.56 0.53 0.50 0.47 0.44 0.41 0.39 0.37 0.35 0.33 0.31 0.30 0.30 0.30 0.30 0.29 0.28 0.28 0.29 0.28 0.29 0.28 0.29 0.28 0.29 0.30 0.30 0.30 0.30 0.30
0.80 0.79 0.76 0.73 0.71 0.68 0.66 0.64 0.62 0.59 0.56 0.55 0.50 0.45 0.41 0.39 0.37 0.34 0.34 0.33 0.31 0.29 0.28 0.27 0.27 0.27 0.27 0.27 0.27 0.27 0.28 0.27 0.27 0.26 0.26 0.27 0.28 0.29 0.30 0.30 0.29 0.29
0.79 0.77 0.74 0.71 0.68 0.65 0.63 0.58 0.56 0.53 0.51 0.49 0.44 0.39 0.35 0.34 0.32 0.30 0.29 0.29 0.29 0.28 0.27 0.26 0.26 0.26 0.26 0.26 0.25 0.25 0.26 0.27 0.26 0.25 0.24 0.25 0.26 0.26 0.27 0.28 0.29 0.28
0.77 0.74 0.71 0.68 0.63 0.60 0.58 0.54 0.52 0.49 0.45 0.40 0.36 0.34 0.31 0.30 0.29 0.27 0.25 0.25 0.27 0.26 0.26 0.26 0.25 0.25 0.25 0.25 0.25 0.24 0.24 0.25 0.25 0.23 0.23 0.24 0.24 0.24 0.24 0.26 0.27 0.28
Wind_Speed
10 10 10 10 11 11 12 13 13 13 13 14 14 15 16 16 17 17 18 18 18 18 19 19 20 21 21 21 22 22 23 23 23 23 24 24 24 23 22 21 20 19
10 9 9 10 11 11 12 13 13 13 13 13 14 15 16 16 17 17 18 18 18 18 19 19 19 20 21 21 21 22 22 23 23 23 23 23 23 23 22 21 20 19
9 9 9 10 11 11 12 13 13 13 13 13 14 15 16 16 17 17 17 18 18 18 18 18 19 20 20 20 21 21 22 23 23 23 22 22 22 22 22 21 20 19
9 9 10 10 11 11 12 13 13 13 13 13 14 15 16 16 17 17 17 17 17 18 18 18 19 20 20 20 21 21 22 22 22 22 22 22 22 22 22 22 21 20
9 9 10 10 11 11 12 12 13 13 13 14 14 15 15 16 16 16 17 17 17 18 18 18 18 19 19 20 20 21 22 22 22 22 21 21 22 22 22 21 22 21
9 10 10 10 11 11 12 12 13 13 14 14 14 14 15 16 16 16 17 17 17 18 18 18 18 19 19 20 20 21 21 21 22 22 21 21 21 21 21 21 21 21
10 10 10 10 11 11 12 12 13 13 14 14 14 14 15 15 16 16 17 17 17 18 18 18 18 19 19 20 20 21 21 21 22 22 21 21 21 21 21 21 21 21
10 10 10 10 10 11 11 12 13 13 13 13 14 14 14 15 15 16 16 16 17 17 18 18 18 19 19 19 20 20 21 21 21 21 21 21 21 21 21 21 21 21
10 10 10 10 10 11 11 12 12 12 13 13 14 14 14 14 15 16 16 16 17 17 17 18 18 18 19 19 19 20 20 21 21 21 21 21 20 21 20 20 20 20
10 10 10 10 10 11 11 12 12 12 12 13 13 14 14 14 15 15 16 16 17 17 17 18 18 18 18 19 19 19 20 20 21 21 21 20 20 20 20 20 20 20
10 9 10 10 10 10 10 10 11 11 12 13 13 14 14 14 15 15 16 16 17 17 18 18 19 19 19 19 19 19 20 20 20 20 20 20 20 19 19 19 19 19
10 10 10 10 10 9 9 10 11 11 12 13 13 14 14 14 15 15 16 16 17 18 18 19 19 19 19 19 19 19 19 19 19 19 20 20 19 19 19 19 19 19
10 9 9 9 8 9 9 10 11 11 12 13 13 14 14 15 15 15 16 17 17 18 18 18 19 18 19 19 19 19 19 19 19 19 19 19 19 19 19 19 19 19
9 9 8 8 8 9 9 10 11 12 12 13 14 14 14 15 15 15 16 16 17 17 17 18 18 18 18 19 19 19 19 19 19 19 19 19 19 19 19 19 19 19
9 8 8 8 8 9 10 10 11 12 12 13 13 13 14 14 14 15 15 16 16 16 17 17 17 18 18 19 19 19 19 19 19 19 19 19 19 19 19 20 20 19
8 8 7 8 8 9 10 11 11 12 12 13 13 13 13 14 14 14 15 15 16 16 16 17 17 17 18 19 19 19 19 19 19 19 19 19 19 19 19 19 20 19
8 7 7 8 8 9 10 11 11 12 12 12 12 13 13 13 14 14 15 15 15 16 16 16 17 17 18 18 19 19 18 18 18 18 18 19 19 19 19 19 19 20
8 7 7 8 8 9 10 10 11 11 12 12 12 12 12 13 13 14 14 15 15 15 16 16 16 17 18 18 18 18 18 17 17 18 18 18 18 19 19 19 19 20
8 7 7 8 9 9 10 10 11 11 11 11 11 12 12 13 13 13 14 14 14 14 15 15 16 17 18 18 18 18 18 17 17 17 18 18 18 19 19 19 20 20
8 7 7 8 8 8 9 9 10 10 10 11 11 12 12 12 13 13 13 13 14 14 14 15 15 17 17 17 18 18 18 17 17 18 18 18 19 19 19 20 20 20
8 8 7 7 7 8 8 8 9 10 10 11 11 11 11 12 12 12 12 13 13 13 14 14 15 16 17 17 17 17 17 17 17 17 18 18 19 19 19 20 20 20
8 8 7 7 7 7 8 8 9 9 10 10 10 10 10 11 11 11 12 12 13 13 14 14 15 16 17 17 17 17 17 17 17 17 18 18 18 19 19 20 20 20
8 8 7 7 7 7 7 8 9 9 9 9 9 9 10 10 11 11 11 12 12 13 13 13 14 16 16 16 17 17 17 17 17 17 17 18 18 18 19 19 20 21
8 8 7 7 7 7 7 8 8 8 8 9 9 9 9 10 10 10 11 11 12 12 13 13 14 15 16 17 17 17 17 16 17 17 17 17 18 18 19 19 20 21
9 8 7 6 6 6 6 7 7 8 8 8 9 9 9 9 9 10 10 10 11 12 13 13 14 15 16 17 17 18 17 16 16 17 17 18 18 19 19 19 20 21
9 8 7 6 6 6 6 6 7 7 8 8 8 8 8 8 8 9 9 10 11 12 12 13 13 14 16 17 17 18 18 17 17 17 18 18 19 19 19 20 20 20
Wind_Direction
290 293 295 298 301 303 305 307 312 315 315 315 316 317 318 320 321 322 324 325 325 326 326 328 329 331 332 333 334 336 338 338 338 339 339 341 341 341 339 335 333 331
290 291 294 297 300 302 304 308 313 315 313 314 317 318 318 319 320 322 324 325 326 327 328 329 330 331 332 333 335 337 339 340 340 340 340 342 343 344 343 340 337 336
286 288 293 297 300 303 306 310 313 312 311 314 317 319 319 320 321 323 325 326 327 328 329 330 330 332 333 334 335 337 340 341 341 342 342 343 345 345 346 345 341 338
282 287 292 297 301 305 308 311 311 311 312 314 317 319 320 322 323 324 326 328 329 331 331 332 332 333 334 335 336 337 339 341 341 342 343 344 345 346 347 347 345 343
281 287 293 297 302 305 308 310 310 312 314 316 317 318 320 322 324 326 328 329 331 332 333 333 333 334 334 335 336 337 339 340 341 342 342 343 344 345 346 347 347 346
280 287 293 298 302 305 307 309 310 312 315 316 317 318 320 323 325 327 329 330 331 333 334 334 334 334 334 334 335 336 338 339 340 341 341 342 343 344 346 347 347 348
280 287 293 297 301 305 307 309 312 314 316 316 317 319 321 324 327 329 330 331 333 334 335 335 335 335 334 334 334 336 337 338 339 340 341 341 342 344 345 346 347 347
282 288 293 296 300 305 308 311 314 317 319 319 320 321 323 325 328 330 331 333 334 335 335 336 336 336 335 335 336 337 337 338 339 340 340 341 341 342 343 344 346 348
281 286 291 296 300 305 309 312 315 319 322 323 323 323 324 325 327 330 330 332 334 336 336 336 336 336 336 336 337 338 338 339 339 339 339 339 339 340 341 343 345 347
279 283 289 295 300 305 309 313 318 321 323 324 324 323 324 324 326 328 329 331 333 335 335 334 334 335 335 336 336 337 337 338 337 338 338 338 339 340 341 342 344 346
277 282 289 295 300 305 311 316 319 320 322 323 324 324 324 324 325 327 329 331 332 333 333 333 333 333 333 335 335 335 336 336 336 337 339 340 341 341 342 342 343 345
275 282 288 293 299 305 312 315 317 318 320 322 322 323 323 323 325 326 328 330 331 331 332 332 332 333 334 335 336 336 336 336 337 338 339 340 342 343 343 344 344 346
273 280 286 291 298 305 310 313 315 317 319 320 321 322 322 323 324 326 327 328 330 330 331 332 334 335 336 336 337 337 337 337 337 338 339 340 341 342 343 345 346 346
270 276 282 289 297 302 308 312 315 317 318 320 321 322 323 324 325 327 328 329 331 333 333 335 337 339 338 337 338 339 339 339 339 340 340 340 341 342 342 343 344 344
265 271 279 287 295 302 308 312 314 316 318 320 322 323 325 326 328 330 332 333 334 336 337 337 340 341 339 338 338 339 340 340 340 341 341 341 341 342 342 342 342 342
261 268 277 286 294 302 307 311 314 317 319 321 323 324 325 327 330 333 334 335 336 338 338 339 340 340 340 340 340 340 340 340 341 341 341 340 340 341 341 342 342 341
258 267 276 286 294 302 308 312 315 317 319 321 322 323 325 328 331 333 334 335 335 337 338 340 340 340 340 341 342 342 342 341 341 341 341 341 340 340 339 339 340 340
255 266 275 285 294 302 308 312 316 318 320 322 323 325 327 330 332 333 334 334 335 337 339 341 341 341 342 342 343 343 343 342 342 341 340 341 341 340 339 339 339 340
254 262 272 283 293 301 307 311 316 320 323 324 326 327 328 331 333 334 335 336 338 340 341 342 342 343 343 343 343 343 343 343 342 341 341 341 341 341 341 341 340 339
252 259 270 282 292 300 307 312 317 322 326 326 326 328 330 333 336 337 339 341 342 342 343 344 345 344 344 344 344 344 344 345 344 344 343 343 344 343 343 344 343 341
250 258 268 280 290 299 307 313 318 323 326 326 327 330 333 336 339 341 343 344 344 345 346 348 347 347 347 347 347 348 349 349 349 348 348 348 348 348 348 348 347 345
247 255 266 278 288 297 306 314 319 323 325 326 329 333 337 339 341 343 345 346 347 348 350 351 351 351 351 352 352 352 353 353 353 352 353 353 352 352 353 353 352 350
245 253 264 275 285 295 305 313 318 322 325 328 332 335 338 340 342 344 346 348 351 352 354 356 356 355 355 355 355 354 354 354 354 354 355 356 356 355 355 355 356 354
245 254 262 272 281 292 303 311 317 320 324 327 331 335 339 342 344 347 350 354 357 358 360 1 0 359 358 358 357 355 355 355 355 356 356 357 357 356 355 355 356 356
244 251 259 268 277 289 301 309 314 318 322 325 330 336 341 344 347 352 357 0 2 3 4 3 3 1 360 359 359 358 357 357 357 358 358 357 357 356 356 355 355 356
241 247 255 264 273 285 297 304 310 316 321 326 333 338 343 348 354 360 4 6 5 5 5 4 3 2 1 1 1 1 1 0 0 360 359 358 357 357 356 356 356 356